Regional Weather Roundup
Issued by NWS

Home | Current Version | Previous Version | Graphics & Text | Print | Product List | Glossary On
Versions: 1 2 3 4 5 6 7 8 9 10 11 12 13 14 15 16 17 18 19 20 21 22 23 24 25 26 27 28 29 30 31 32 33 34 35 36 37 38 39 40 41 42 43 44 45 46 47 48 49 50
000
ASUS43 KDMX 180307
RWRIA

WEATHER ROUNDUP FOR IOWA
NATIONAL WEATHER SERVICE DES MOINES IA
1000 PM CDT FRI APR 17 2015

NOTE: "FAIR" INDICATES FEW OR NO CLOUDS BELOW 12,000 FEET WITH NO
SIGNIFICANT WEATHER AND/OR OBSTRUCTIONS TO VISIBILITY.

* - THESE STATIONS ARE NOT NWS STATIONS...THUS NOT UNDER NWS
QUALITY CONTROL.  THEY ALSO DO NOT REPORT WEATHER SUCH
AS PRECIPITATION OR FOG.

IAZ001>003-012>014-020>022-031>034-043>046-180400-
   NORTHWEST IOWA

CITY           SKY/WX    TMP DP  RH WIND       PRES   REMARKS
CARROLL *      CLOUDY    64  46  52 N8        30.01S
CHEROKEE *     MOCLDY    59  48  67 CALM      30.02S
DENISON *      MOCLDY    64  50  59 E6        30.00S
LE MARS *      CLEAR     59  52  77 CALM      30.03S
ORANGE CITY *  PTCLDY    64  45  48 NE3       30.04R
SHELDON *      CLOUDY    61  45  55 NE7       30.03S
SIOUX CITY     MOCLDY    68  44  42 E6        30.01S
SPENCER        MOCLDY    62  43  49 NE7       30.04R
STORM LAKE *   CLEAR     64  45  48 NE7       30.04S
$$

IAZ055>058-069>071-079>083-090>094-180400-
   SOUTHWEST IOWA

CITY           SKY/WX    TMP DP  RH WIND       PRES   REMARKS
ATLANTIC *     CLOUDY    64  54  68 N3        30.01R
AUDUBON *      CLEAR     61  52  72 CALM      30.03R
CLARINDA *     CLOUDY    68  55  64 E3        30.00F
COUNCIL BLFS * CLOUDY    68  55  64 SE3       30.01R
CRESTON *      CLEAR     64  54  68 E8        30.02R
HARLAN  *      PTCLDY    63  54  72 CALM      30.05R
LAMONI         LGT RAIN  69  55  60 NE6       30.00R
RED OAK *      CLOUDY    66  55  68 NE5       30.00S
SHENANDOAH *   CLOUDY    64  55  72 NE6       30.00S
$$

IAZ047>049-059>061-072>074-084-180400-
   CENTRAL IOWA

CITY           SKY/WX    TMP DP  RH WIND       PRES   REMARKS
AMES           PTCLDY    64  49  57 CALM      30.01R
ANKENY *       CLEAR     63  52  67 CALM      30.00F
CHARITON *     CLOUDY    66  52  59 NE5       30.01S
DES MOINES     MOCLDY    70  51  51 CALM      30.01R
GRINNELL*      PTCLDY    66  50  55 CALM      30.02S
KNOXVILLE *    MOCLDY    70  50  49 CALM      30.00R
MARSHALLTOWN   PTCLDY    63  49  60 CALM      30.00S
PELLA *        MOCLDY    64  54  68 CALM      30.02S
PERRY *          N/A     64  48  55 CALM      30.01S
$$

IAZ004>006-015-016-023>025-035-036-180400-
   NORTH CENTRAL IOWA

CITY           SKY/WX    TMP DP  RH WIND       PRES   REMARKS
ALGONA *       CLEAR     64  46  52 N6        30.04S
CLARION *      MOCLDY    63  46  55 NE7       30.03S
ESTHERVILLE    PTCLDY    60  39  45 N8        30.03S
FORT DODGE *   PTCLDY    64  45  48 NE7       30.03S
MASON CITY     CLOUDY    59  46  62 N7        30.04S
FOREST CITY *  CLEAR     55  46  71 CALM      30.03F
IOWA FALLS *     N/A     64  45  48 CALM      30.03S
$$

IAZ007>011-017>019-026>030-037>042-050>054-066-180400-
   NORTHEAST IOWA

CITY           SKY/WX    TMP DP  RH WIND       PRES   REMARKS
CEDAR RAPIDS   PTCLDY    64  49  57 S3        30.00S
CHARLES CITY * MOCLDY    64  45  48 N5        30.03S
CLINTON *      MOCLDY    63  46  55 CALM      30.03F
DECORAH *      PTCLDY    66  43  42 CALM      30.02S
DUBUQUE        MOCLDY    60  49  66 CALM      30.02R
MONTICELLO *   CLOUDY    63  54  72 CALM      30.00F
OELWEIN *      PTCLDY    66  46  48 NE6       30.03S
WATERLOO       CLOUDY    64  49  57 NE5       30.01S
$$

IAZ064-065-067-068-078-180400-
   EAST CENTRAL IOWA

CITY           SKY/WX    TMP DP  RH WIND       PRES   REMARKS
DAVENPORT      PTCLDY    64  46  52 CALM      30.02R
IOWA CITY      CLEAR     61  51  70 CALM      30.01S
MT. PLEASANT * CLEAR     63  50  63 NE6       30.00S
MUSCATINE *    CLEAR     61  50  67 CALM      30.00S
QUAD CITIES    PTCLDY    58  49  72 CALM      30.00S
$$

IAZ062-063-075>077-085>089-095>099-180400-
   SOUTHEAST IOWA

CITY           SKY/WX    TMP DP  RH WIND       PRES   REMARKS
BURLINGTON     PTCLDY    66  54  65 SE3       30.00S
FAIRFIELD *    CLEAR     64  50  59 NE6       30.01R
FORT MADISON * CLEAR     70  54  56 CALM      30.01S
KEOKUK *       CLEAR     68  54  60 CALM      29.99S
OSKALOOSA *      N/A     66  48  52 E3        30.01R
CENTERVILLE *  PTCLDY    66  54  63 E3        30.02R
OTTUMWA        PTCLDY    65  50  58 E6        30.00S
WASHINGTON *   CLEAR     66  52  59 CALM      30.01S
$$

ABBREVIATIONS USED IN REMARKS
   TC - TEMPERATURES IN CELSIUS
  WCI - WIND CHILL INDEX
   HX - HEAT INDEX
  VSB - VISIBILITY
$$




USA.gov is the U.S. government's official web portal to all federal, state and local government web resources and services.